owner,sensor,date,latitude,longitude,vertical_datum,wind_speed,wind_to_direction,wind_speed_of_gust,qcFlag 
WAVCIS,ioos:station:WAVCIS:CSI03:3,2009-12-01T00:00:00Z,29.4412,-92.0613,10.0,8.11,25.0,,'11111222,11111222,99999999' 
WAVCIS,ioos:station:WAVCIS:CSI03:3,2009-12-01T01:00:00Z,29.4412,-92.0613,10.0,8.53,24.0,,'11111222,11111222,99999999' 
WAVCIS,ioos:station:WAVCIS:CSI03:3,2009-12-01T02:00:00Z,29.4412,-92.0613,10.0,7.27,52.0,,'11111222,11111222,99999999' 
WAVCIS,ioos:station:WAVCIS:CSI03:3,2009-12-01T03:00:00Z,29.4412,-92.0613,10.0,8.84,55.0,,'11111222,11111222,99999999' 
WAVCIS,ioos:station:WAVCIS:CSI03:3,2009-12-01T04:00:00Z,29.4412,-92.0613,10.0,9.38,60.0,,'11111222,11111222,99999999' 
WAVCIS,ioos:station:WAVCIS:CSI03:3,2009-12-01T05:00:00Z,29.4412,-92.0613,10.0,10.83,67.0,,'11111222,11111222,99999999' 
WAVCIS,ioos:station:WAVCIS:CSI03:3,2009-12-01T06:00:00Z,29.4412,-92.0613,10.0,10.05,64.0,,'11111222,11111222,99999999' 
WAVCIS,ioos:station:WAVCIS:CSI03:3,2009-12-01T07:00:00Z,29.4412,-92.0613,10.0,8.94,62.0,,'11111222,11111222,99999999' 
WAVCIS,ioos:station:WAVCIS:CSI03:3,2009-12-01T08:00:00Z,29.4412,-92.0613,10.0,9.18,68.0,,'11111222,11111222,99999999' 
WAVCIS,ioos:station:WAVCIS:CSI03:3,2009-12-01T09:00:00Z,29.4412,-92.0613,10.0,8.46,64.0,,'11111222,11111222,99999999' 
WAVCIS,ioos:station:WAVCIS:CSI03:3,2009-12-01T10:00:00Z,29.4412,-92.0613,10.0,9.9,64.0,,'11111222,11111222,99999999' 
WAVCIS,ioos:station:WAVCIS:CSI03:3,2009-12-01T11:00:00Z,29.4412,-92.0613,10.0,11.57,69.0,,'11111222,11111222,99999999' 
WAVCIS,ioos:station:WAVCIS:CSI03:3,2009-12-01T12:00:00Z,29.4412,-92.0613,10.0,7.69,68.0,,'11111222,11111222,99999999' 
WAVCIS,ioos:station:WAVCIS:CSI03:3,2009-12-01T13:00:00Z,29.4412,-92.0613,10.0,7.95,79.0,,'11111222,11111222,99999999' 
WAVCIS,ioos:station:WAVCIS:CSI03:3,2009-12-01T14:00:00Z,29.4412,-92.0613,10.0,7.74,87.0,,'11111222,11111222,99999999' 
WAVCIS,ioos:station:WAVCIS:CSI03:3,2009-12-01T15:00:00Z,29.4412,-92.0613,10.0,9.35,82.0,,'11111222,11111222,99999999' 
WAVCIS,ioos:station:WAVCIS:CSI03:3,2009-12-01T16:00:00Z,29.4412,-92.0613,10.0,9.96,67.0,,'11111222,11111222,99999999' 
WAVCIS,ioos:station:WAVCIS:CSI03:3,2009-12-01T17:00:00Z,29.4412,-92.0613,10.0,9.84,80.0,,'11111222,11111222,99999999' 
WAVCIS,ioos:station:WAVCIS:CSI03:3,2009-12-01T18:00:00Z,29.4412,-92.0613,10.0,10.01,67.0,,'11111222,11111222,99999999' 
WAVCIS,ioos:station:WAVCIS:CSI03:3,2009-12-01T19:00:00Z,29.4412,-92.0613,10.0,12.4,72.0,,'11111222,11111222,99999999' 
WAVCIS,ioos:station:WAVCIS:CSI03:3,2009-12-01T20:00:00Z,29.4412,-92.0613,10.0,11.48,70.0,,'11111222,11111222,99999999' 
WAVCIS,ioos:station:WAVCIS:CSI03:3,2009-12-01T21:00:00Z,29.4412,-92.0613,10.0,4.147,26.0,,'11111222,11111222,99999999' 
WAVCIS,ioos:station:WAVCIS:CSI03:3,2009-12-01T22:00:00Z,29.4412,-92.0613,10.0,9.77,74.0,,'11111222,11111222,99999999' 
WAVCIS,ioos:station:WAVCIS:CSI03:3,2009-12-01T23:00:00Z,29.4412,-92.0613,10.0,13.86,96.0,,'11111222,11111222,99999999' 
WAVCIS,ioos:station:WAVCIS:CSI03:3,2009-12-02T00:00:00Z,29.4412,-92.0613,10.0,14.33,95.0,,'11111222,11111222,99999999' 
WAVCIS,ioos:station:WAVCIS:CSI03:3,2009-12-02T01:00:00Z,29.4412,-92.0613,10.0,14.0,103.0,,'11111222,11111222,99999999' 
WAVCIS,ioos:station:WAVCIS:CSI03:3,2009-12-02T02:00:00Z,29.4412,-92.0613,10.0,12.06,113.0,,'11111222,11111222,99999999' 
WAVCIS,ioos:station:WAVCIS:CSI03:3,2009-12-02T03:00:00Z,29.4412,-92.0613,10.0,5.176,77.0,,'11111222,11111222,99999999' 
WAVCIS,ioos:station:WAVCIS:CSI03:3,2009-12-02T04:00:00Z,29.4412,-92.0613,10.0,9.13,113.0,,'11111222,11111222,99999999' 
WAVCIS,ioos:station:WAVCIS:CSI03:3,2009-12-02T05:00:00Z,29.4412,-92.0613,10.0,8.81,117.0,,'11111222,11111222,99999999' 
WAVCIS,ioos:station:WAVCIS:CSI03:3,2009-12-02T06:00:00Z,29.4412,-92.0613,10.0,5.61,117.0,,'11111222,11111222,99999999' 
WAVCIS,ioos:station:WAVCIS:CSI03:3,2009-12-02T07:00:00Z,29.4412,-92.0613,10.0,15.12,340.0,,'11111222,11111222,99999999' 
WAVCIS,ioos:station:WAVCIS:CSI03:3,2009-12-02T08:00:00Z,29.4412,-92.0613,10.0,6.401,28.0,,'11111222,11111222,99999999' 
WAVCIS,ioos:station:WAVCIS:CSI03:3,2009-12-02T09:00:00Z,29.4412,-92.0613,10.0,5.745,57.0,,'11111222,11111222,99999999' 
WAVCIS,ioos:station:WAVCIS:CSI03:3,2009-12-02T10:00:00Z,29.4412,-92.0613,10.0,2.98,20.0,,'11111222,11111222,99999999' 
WAVCIS,ioos:station:WAVCIS:CSI03:3,2009-12-02T11:00:00Z,29.4412,-92.0613,10.0,7.94,284.0,,'11111222,11111222,99999999' 
WAVCIS,ioos:station:WAVCIS:CSI03:3,2009-12-02T12:00:00Z,29.4412,-92.0613,10.0,4.899,301.0,,'11111222,11111222,99999999' 
WAVCIS,ioos:station:WAVCIS:CSI03:3,2009-12-02T13:00:00Z,29.4412,-92.0613,10.0,10.72,288.0,,'11111222,11111222,99999999' 
WAVCIS,ioos:station:WAVCIS:CSI03:3,2009-12-02T14:00:00Z,29.4412,-92.0613,10.0,8.81,287.0,,'11111222,11111222,99999999' 
WAVCIS,ioos:station:WAVCIS:CSI03:3,2009-12-02T15:00:00Z,29.4412,-92.0613,10.0,10.68,281.0,,'11111222,11111222,99999999' 
WAVCIS,ioos:station:WAVCIS:CSI03:3,2009-12-02T16:00:00Z,29.4412,-92.0613,10.0,12.17,278.0,,'11111222,11111222,99999999' 
WAVCIS,ioos:station:WAVCIS:CSI03:3,2009-12-02T17:00:00Z,29.4412,-92.0613,10.0,14.93,283.0,,'11111222,11111222,99999999' 
WAVCIS,ioos:station:WAVCIS:CSI03:3,2009-12-02T18:00:00Z,29.4412,-92.0613,10.0,13.49,289.0,,'11111222,11111222,99999999' 
WAVCIS,ioos:station:WAVCIS:CSI03:3,2009-12-02T19:00:00Z,29.4412,-92.0613,10.0,13.95,288.0,,'11111222,11111222,99999999' 
WAVCIS,ioos:station:WAVCIS:CSI03:3,2009-12-02T20:00:00Z,29.4412,-92.0613,10.0,8.14,300.0,,'11111222,11111222,99999999' 
WAVCIS,ioos:station:WAVCIS:CSI03:3,2009-12-02T21:00:00Z,29.4412,-92.0613,10.0,6.309,306.0,,'11111222,11111222,99999999' 
WAVCIS,ioos:station:WAVCIS:CSI03:3,2009-12-02T22:00:00Z,29.4412,-92.0613,10.0,10.43,318.0,,'11111222,11111222,99999999' 
WAVCIS,ioos:station:WAVCIS:CSI03:3,2009-12-02T23:00:00Z,29.4412,-92.0613,10.0,7.78,317.0,,'11111222,11111222,99999999' 
WAVCIS,ioos:station:WAVCIS:CSI03:3,2009-12-03T00:00:00Z,29.4412,-92.0613,10.0,8.56,323.0,,'11111222,11111222,99999999' 
WAVCIS,ioos:station:WAVCIS:CSI03:3,2009-12-03T01:00:00Z,29.4412,-92.0613,10.0,7.3,320.0,,'11111222,11111222,99999999' 
WAVCIS,ioos:station:WAVCIS:CSI03:3,2009-12-03T02:00:00Z,29.4412,-92.0613,10.0,7.83,337.0,,'11111222,11111222,99999999' 
WAVCIS,ioos:station:WAVCIS:CSI03:3,2009-12-03T03:00:00Z,29.4412,-92.0613,10.0,8.91,327.0,,'11111222,11111222,99999999' 
WAVCIS,ioos:station:WAVCIS:CSI03:3,2009-12-03T04:00:00Z,29.4412,-92.0613,10.0,10.35,342.0,,'11111222,11111222,99999999' 
WAVCIS,ioos:station:WAVCIS:CSI03:3,2009-12-03T05:00:00Z,29.4412,-92.0613,10.0,8.27,348.0,,'11111222,11111222,99999999' 
WAVCIS,ioos:station:WAVCIS:CSI03:3,2009-12-03T06:00:00Z,29.4412,-92.0613,10.0,8.89,348.0,,'11111222,11111222,99999999' 
WAVCIS,ioos:station:WAVCIS:CSI03:3,2009-12-03T07:00:00Z,29.4412,-92.0613,10.0,9.27,345.0,,'11111222,11111222,99999999' 
WAVCIS,ioos:station:WAVCIS:CSI03:3,2009-12-03T08:00:00Z,29.4412,-92.0613,10.0,8.51,336.0,,'11111222,11111222,99999999' 
WAVCIS,ioos:station:WAVCIS:CSI03:3,2009-12-03T09:00:00Z,29.4412,-92.0613,10.0,9.64,345.0,,'11111222,11111222,99999999' 
WAVCIS,ioos:station:WAVCIS:CSI03:3,2009-12-03T10:00:00Z,29.4412,-92.0613,10.0,9.23,354.0,,'11111222,11111222,99999999' 
WAVCIS,ioos:station:WAVCIS:CSI03:3,2009-12-03T11:00:00Z,29.4412,-92.0613,10.0,6.936,5.0,,'11111222,11111222,99999999' 
WAVCIS,ioos:station:WAVCIS:CSI03:3,2009-12-03T12:00:00Z,29.4412,-92.0613,10.0,5.979,12.0,,'11111222,11111222,99999999' 
WAVCIS,ioos:station:WAVCIS:CSI03:3,2009-12-03T13:00:00Z,29.4412,-92.0613,10.0,5.146,16.0,,'11111222,11111222,99999999' 
WAVCIS,ioos:station:WAVCIS:CSI03:3,2009-12-03T14:00:00Z,29.4412,-92.0613,10.0,3.498,36.0,,'11111222,11111222,99999999' 
WAVCIS,ioos:station:WAVCIS:CSI03:3,2009-12-03T15:00:00Z,29.4412,-92.0613,10.0,2.925,34.0,,'11111222,11111222,99999999' 
WAVCIS,ioos:station:WAVCIS:CSI03:3,2009-12-03T16:00:00Z,29.4412,-92.0613,10.0,2.654,11.0,,'11111222,11111222,99999999' 
WAVCIS,ioos:station:WAVCIS:CSI03:3,2009-12-03T17:00:00Z,29.4412,-92.0613,10.0,1.419,3.0,,'11111222,11111222,99999999' 
WAVCIS,ioos:station:WAVCIS:CSI03:3,2009-12-03T18:00:00Z,29.4412,-92.0613,10.0,1.218,357.0,,'11111222,11111222,99999999' 
WAVCIS,ioos:station:WAVCIS:CSI03:3,2009-12-03T19:00:00Z,29.4412,-92.0613,10.0,1.872,306.0,,'11111222,11111222,99999999' 
WAVCIS,ioos:station:WAVCIS:CSI03:3,2009-12-03T20:00:00Z,29.4412,-92.0613,10.0,2.583,279.0,,'11111222,11111222,99999999' 
WAVCIS,ioos:station:WAVCIS:CSI03:3,2009-12-03T21:00:00Z,29.4412,-92.0613,10.0,2.075,328.0,,'11111222,11111222,99999999' 
WAVCIS,ioos:station:WAVCIS:CSI03:3,2009-12-03T22:00:00Z,29.4412,-92.0613,10.0,1.236,22.0,,'11111222,11111222,99999999' 
WAVCIS,ioos:station:WAVCIS:CSI03:3,2009-12-03T23:00:00Z,29.4412,-92.0613,10.0,5.426,355.0,,'11111222,11111222,99999999' 
WAVCIS,ioos:station:WAVCIS:CSI03:3,2009-12-04T00:00:00Z,29.4412,-92.0613,10.0,6.044,8.0,,'11111222,11111222,99999999' 
WAVCIS,ioos:station:WAVCIS:CSI03:3,2009-12-04T01:00:00Z,29.4412,-92.0613,10.0,5.613,10.0,,'11111222,11111222,99999999' 
WAVCIS,ioos:station:WAVCIS:CSI03:3,2009-12-04T02:00:00Z,29.4412,-92.0613,10.0,6.036,20.0,,'11111222,11111222,99999999' 
WAVCIS,ioos:station:WAVCIS:CSI03:3,2009-12-04T03:00:00Z,29.4412,-92.0613,10.0,5.991,18.0,,'11111222,11111222,99999999' 
WAVCIS,ioos:station:WAVCIS:CSI03:3,2009-12-04T04:00:00Z,29.4412,-92.0613,10.0,5.853,27.0,,'11111222,11111222,99999999' 
WAVCIS,ioos:station:WAVCIS:CSI03:3,2009-12-04T05:00:00Z,29.4412,-92.0613,10.0,4.823,42.0,,'11111222,11111222,99999999' 
WAVCIS,ioos:station:WAVCIS:CSI03:3,2009-12-04T06:00:00Z,29.4412,-92.0613,10.0,7.69,56.0,,'11111222,11111222,99999999' 
WAVCIS,ioos:station:WAVCIS:CSI03:3,2009-12-04T07:00:00Z,29.4412,-92.0613,10.0,8.9,55.0,,'11111222,11111222,99999999' 
WAVCIS,ioos:station:WAVCIS:CSI03:3,2009-12-04T08:00:00Z,29.4412,-92.0613,10.0,8.82,56.0,,'11111222,11111222,99999999' 
WAVCIS,ioos:station:WAVCIS:CSI03:3,2009-12-04T09:00:00Z,29.4412,-92.0613,10.0,7.4,54.0,,'11111222,11111222,99999999' 
WAVCIS,ioos:station:WAVCIS:CSI03:3,2009-12-04T10:00:00Z,29.4412,-92.0613,10.0,8.42,58.0,,'11111222,11111222,99999999' 
WAVCIS,ioos:station:WAVCIS:CSI03:3,2009-12-04T11:00:00Z,29.4412,-92.0613,10.0,6.425,48.0,,'11111222,11111222,99999999' 
WAVCIS,ioos:station:WAVCIS:CSI03:3,2009-12-04T12:00:00Z,29.4412,-92.0613,10.0,7.13,51.0,,'11111222,11111222,99999999' 
WAVCIS,ioos:station:WAVCIS:CSI03:3,2009-12-04T13:00:00Z,29.4412,-92.0613,10.0,7.53,53.0,,'11111222,11111222,99999999' 
WAVCIS,ioos:station:WAVCIS:CSI03:3,2009-12-04T14:00:00Z,29.4412,-92.0613,10.0,8.28,61.0,,'11111222,11111222,99999999' 
WAVCIS,ioos:station:WAVCIS:CSI03:3,2009-12-04T15:00:00Z,29.4412,-92.0613,10.0,9.76,66.0,,'11111222,11111222,99999999' 
WAVCIS,ioos:station:WAVCIS:CSI03:3,2009-12-04T16:00:00Z,29.4412,-92.0613,10.0,4.554,46.0,,'11111222,11111222,99999999' 
WAVCIS,ioos:station:WAVCIS:CSI03:3,2009-12-04T17:00:00Z,29.4412,-92.0613,10.0,5.242,40.0,,'11111222,11111222,99999999' 
WAVCIS,ioos:station:WAVCIS:CSI03:3,2009-12-04T18:00:00Z,29.4412,-92.0613,10.0,6.016,31.0,,'11111222,11111222,99999999' 
WAVCIS,ioos:station:WAVCIS:CSI03:3,2009-12-04T19:00:00Z,29.4412,-92.0613,10.0,5.494,39.0,,'11111222,11111222,99999999' 
WAVCIS,ioos:station:WAVCIS:CSI03:3,2009-12-04T20:00:00Z,29.4412,-92.0613,10.0,8.09,18.0,,'11111222,11111222,99999999' 
WAVCIS,ioos:station:WAVCIS:CSI03:3,2009-12-04T21:00:00Z,29.4412,-92.0613,10.0,7.82,5.0,,'11111222,11111222,99999999' 
WAVCIS,ioos:station:WAVCIS:CSI03:3,2009-12-04T22:00:00Z,29.4412,-92.0613,10.0,12.84,351.0,,'11111222,11111222,99999999' 
WAVCIS,ioos:station:WAVCIS:CSI03:3,2009-12-04T23:00:00Z,29.4412,-92.0613,10.0,10.97,10.0,,'11111222,11111222,99999999' 
WAVCIS,ioos:station:WAVCIS:CSI03:3,2009-12-05T00:00:00Z,29.4412,-92.0613,10.0,11.11,8.0,,'11111222,11111222,99999999' 
WAVCIS,ioos:station:WAVCIS:CSI03:3,2009-12-05T01:00:00Z,29.4412,-92.0613,10.0,10.86,15.0,,'11111222,11111222,99999999' 
WAVCIS,ioos:station:WAVCIS:CSI03:3,2009-12-05T02:00:00Z,29.4412,-92.0613,10.0,10.24,21.0,,'11111222,11111222,99999999' 
WAVCIS,ioos:station:WAVCIS:CSI03:3,2009-12-05T03:00:00Z,29.4412,-92.0613,10.0,9.15,16.0,,'11111222,11111222,99999999' 
WAVCIS,ioos:station:WAVCIS:CSI03:3,2009-12-05T04:00:00Z,29.4412,-92.0613,10.0,8.61,13.0,,'11111222,11111222,99999999' 
WAVCIS,ioos:station:WAVCIS:CSI03:3,2009-12-05T05:00:00Z,29.4412,-92.0613,10.0,9.0,11.0,,'11111222,11111222,99999999' 
WAVCIS,ioos:station:WAVCIS:CSI03:3,2009-12-05T06:00:00Z,29.4412,-92.0613,10.0,9.05,14.0,,'11111222,11111222,99999999' 
WAVCIS,ioos:station:WAVCIS:CSI03:3,2009-12-05T07:00:00Z,29.4412,-92.0613,10.0,9.26,10.0,,'11111222,11111222,99999999' 
WAVCIS,ioos:station:WAVCIS:CSI03:3,2009-12-05T08:00:00Z,29.4412,-92.0613,10.0,6.368,23.0,,'11111222,11111222,99999999' 
WAVCIS,ioos:station:WAVCIS:CSI03:3,2009-12-05T09:00:00Z,29.4412,-92.0613,10.0,6.918,20.0,,'11111222,11111222,99999999' 
WAVCIS,ioos:station:WAVCIS:CSI03:3,2009-12-05T10:00:00Z,29.4412,-92.0613,10.0,5.88,35.0,,'11111222,11111222,99999999' 
WAVCIS,ioos:station:WAVCIS:CSI03:3,2009-12-05T11:00:00Z,29.4412,-92.0613,10.0,5.612,30.0,,'11111222,11111222,99999999' 
WAVCIS,ioos:station:WAVCIS:CSI03:3,2009-12-05T12:00:00Z,29.4412,-92.0613,10.0,5.941,28.0,,'11111222,11111222,99999999' 
WAVCIS,ioos:station:WAVCIS:CSI03:3,2009-12-05T13:00:00Z,29.4412,-92.0613,10.0,5.117,27.0,,'11111222,11111222,99999999' 
WAVCIS,ioos:station:WAVCIS:CSI03:3,2009-12-05T14:00:00Z,29.4412,-92.0613,10.0,4.404,35.0,,'11111222,11111222,99999999' 
WAVCIS,ioos:station:WAVCIS:CSI03:3,2009-12-05T15:00:00Z,29.4412,-92.0613,10.0,3.799,37.0,,'11111222,11111222,99999999' 
WAVCIS,ioos:station:WAVCIS:CSI03:3,2009-12-05T16:00:00Z,29.4412,-92.0613,10.0,4.067,48.0,,'11111222,11111222,99999999' 
WAVCIS,ioos:station:WAVCIS:CSI03:3,2009-12-05T17:00:00Z,29.4412,-92.0613,10.0,3.375,35.0,,'11111222,11111222,99999999' 
WAVCIS,ioos:station:WAVCIS:CSI03:3,2009-12-05T18:00:00Z,29.4412,-92.0613,10.0,3.054,31.0,,'11111222,11111222,99999999' 
WAVCIS,ioos:station:WAVCIS:CSI03:3,2009-12-05T19:00:00Z,29.4412,-92.0613,10.0,3.112,25.0,,'11111222,11111222,99999999' 
WAVCIS,ioos:station:WAVCIS:CSI03:3,2009-12-05T20:00:00Z,29.4412,-92.0613,10.0,3.755,15.0,,'11111222,11111222,99999999' 
WAVCIS,ioos:station:WAVCIS:CSI03:3,2009-12-05T21:00:00Z,29.4412,-92.0613,10.0,3.539,20.0,,'11111222,11111222,99999999' 
WAVCIS,ioos:station:WAVCIS:CSI03:3,2009-12-05T22:00:00Z,29.4412,-92.0613,10.0,1.776,36.0,,'11111222,11111222,99999999' 
WAVCIS,ioos:station:WAVCIS:CSI03:3,2009-12-05T23:00:00Z,29.4412,-92.0613,10.0,2.236,73.0,,'11111222,11111222,99999999' 
WAVCIS,ioos:station:WAVCIS:CSI03:3,2009-12-06T00:00:00Z,29.4412,-92.0613,10.0,1.676,87.0,,'11111222,11111222,99999999' 
WAVCIS,ioos:station:WAVCIS:CSI03:3,2009-12-06T01:00:00Z,29.4412,-92.0613,10.0,2.795,76.0,,'11111222,11111222,99999999' 
WAVCIS,ioos:station:WAVCIS:CSI03:3,2009-12-06T02:00:00Z,29.4412,-92.0613,10.0,2.442,72.0,,'11111222,11111222,99999999' 
WAVCIS,ioos:station:WAVCIS:CSI03:3,2009-12-06T03:00:00Z,29.4412,-92.0613,10.0,3.713,70.0,,'11111222,11111222,99999999' 
WAVCIS,ioos:station:WAVCIS:CSI03:3,2009-12-06T04:00:00Z,29.4412,-92.0613,10.0,3.479,103.0,,'11111222,11111222,99999999' 
WAVCIS,ioos:station:WAVCIS:CSI03:3,2009-12-06T05:00:00Z,29.4412,-92.0613,10.0,3.777,110.0,,'11111222,11111222,99999999' 
WAVCIS,ioos:station:WAVCIS:CSI03:3,2009-12-06T06:00:00Z,29.4412,-92.0613,10.0,4.331,110.0,,'11111222,11111222,99999999' 
WAVCIS,ioos:station:WAVCIS:CSI03:3,2009-12-06T07:00:00Z,29.4412,-92.0613,10.0,3.939,120.0,,'11111222,11111222,99999999' 
WAVCIS,ioos:station:WAVCIS:CSI03:3,2009-12-06T08:00:00Z,29.4412,-92.0613,10.0,6.359,115.0,,'11111222,11111222,99999999' 
WAVCIS,ioos:station:WAVCIS:CSI03:3,2009-12-06T09:00:00Z,29.4412,-92.0613,10.0,6.972,113.0,,'11111222,11111222,99999999' 
WAVCIS,ioos:station:WAVCIS:CSI03:3,2009-12-06T10:00:00Z,29.4412,-92.0613,10.0,7.95,121.0,,'11111222,11111222,99999999' 
WAVCIS,ioos:station:WAVCIS:CSI03:3,2009-12-06T11:00:00Z,29.4412,-92.0613,10.0,8.25,106.0,,'11111222,11111222,99999999' 
WAVCIS,ioos:station:WAVCIS:CSI03:3,2009-12-06T12:00:00Z,29.4412,-92.0613,10.0,8.86,104.0,,'11111222,11111222,99999999' 
WAVCIS,ioos:station:WAVCIS:CSI03:3,2009-12-06T13:00:00Z,29.4412,-92.0613,10.0,10.37,101.0,,'11111222,11111222,99999999' 
WAVCIS,ioos:station:WAVCIS:CSI03:3,2009-12-06T14:00:00Z,29.4412,-92.0613,10.0,10.85,97.0,,'11111222,11111222,99999999' 
WAVCIS,ioos:station:WAVCIS:CSI03:3,2009-12-06T15:00:00Z,29.4412,-92.0613,10.0,10.74,106.0,,'11111222,11111222,99999999' 
WAVCIS,ioos:station:WAVCIS:CSI03:3,2009-12-06T16:00:00Z,29.4412,-92.0613,10.0,10.86,92.0,,'11111222,11111222,99999999' 
WAVCIS,ioos:station:WAVCIS:CSI03:3,2009-12-06T17:00:00Z,29.4412,-92.0613,10.0,9.81,91.0,,'11111222,11111222,99999999' 
WAVCIS,ioos:station:WAVCIS:CSI03:3,2009-12-06T18:00:00Z,29.4412,-92.0613,10.0,8.67,96.0,,'11111222,11111222,99999999' 
WAVCIS,ioos:station:WAVCIS:CSI03:3,2009-12-06T19:00:00Z,29.4412,-92.0613,10.0,8.59,95.0,,'11111222,11111222,99999999' 
WAVCIS,ioos:station:WAVCIS:CSI03:3,2009-12-06T20:00:00Z,29.4412,-92.0613,10.0,8.33,103.0,,'11111222,11111222,99999999' 
WAVCIS,ioos:station:WAVCIS:CSI03:3,2009-12-06T21:00:00Z,29.4412,-92.0613,10.0,8.71,103.0,,'11111222,11111222,99999999' 
WAVCIS,ioos:station:WAVCIS:CSI03:3,2009-12-06T22:00:00Z,29.4412,-92.0613,10.0,8.95,96.0,,'11111222,11111222,99999999' 
WAVCIS,ioos:station:WAVCIS:CSI03:3,2009-12-06T23:00:00Z,29.4412,-92.0613,10.0,8.79,102.0,,'11111222,11111222,99999999' 
WAVCIS,ioos:station:WAVCIS:CSI03:3,2009-12-07T00:00:00Z,29.4412,-92.0613,10.0,9.88,106.0,,'11111222,11111222,99999999' 
WAVCIS,ioos:station:WAVCIS:CSI03:3,2009-12-07T01:00:00Z,29.4412,-92.0613,10.0,9.18,112.0,,'11111222,11111222,99999999' 
WAVCIS,ioos:station:WAVCIS:CSI03:3,2009-12-07T02:00:00Z,29.4412,-92.0613,10.0,9.75,119.0,,'11111222,11111222,99999999' 
WAVCIS,ioos:station:WAVCIS:CSI03:3,2009-12-07T03:00:00Z,29.4412,-92.0613,10.0,10.7,125.0,,'11111222,11111222,99999999' 
WAVCIS,ioos:station:WAVCIS:CSI03:3,2009-12-07T04:00:00Z,29.4412,-92.0613,10.0,8.96,122.0,,'11111222,11111222,99999999' 
WAVCIS,ioos:station:WAVCIS:CSI03:3,2009-12-07T05:00:00Z,29.4412,-92.0613,10.0,9.56,122.0,,'11111222,11111222,99999999' 
WAVCIS,ioos:station:WAVCIS:CSI03:3,2009-12-07T06:00:00Z,29.4412,-92.0613,10.0,8.0,118.0,,'11111222,11111222,99999999' 
WAVCIS,ioos:station:WAVCIS:CSI03:3,2009-12-07T07:00:00Z,29.4412,-92.0613,10.0,8.38,120.0,,'11111222,11111222,99999999' 
WAVCIS,ioos:station:WAVCIS:CSI03:3,2009-12-07T08:00:00Z,29.4412,-92.0613,10.0,7.61,118.0,,'11111222,11111222,99999999' 
WAVCIS,ioos:station:WAVCIS:CSI03:3,2009-12-07T09:00:00Z,29.4412,-92.0613,10.0,7.93,122.0,,'11111222,11111222,99999999' 
WAVCIS,ioos:station:WAVCIS:CSI03:3,2009-12-07T10:00:00Z,29.4412,-92.0613,10.0,7.82,121.0,,'11111222,11111222,99999999' 
WAVCIS,ioos:station:WAVCIS:CSI03:3,2009-12-07T11:00:00Z,29.4412,-92.0613,10.0,7.52,122.0,,'11111222,11111222,99999999' 
WAVCIS,ioos:station:WAVCIS:CSI03:3,2009-12-07T12:00:00Z,29.4412,-92.0613,10.0,7.15,122.0,,'11111222,11111222,99999999' 
WAVCIS,ioos:station:WAVCIS:CSI03:3,2009-12-07T13:00:00Z,29.4412,-92.0613,10.0,7.24,130.0,,'11111222,11111222,99999999' 
WAVCIS,ioos:station:WAVCIS:CSI03:3,2009-12-07T14:00:00Z,29.4412,-92.0613,10.0,4.232,90.0,,'11111222,11111222,99999999' 
WAVCIS,ioos:station:WAVCIS:CSI03:3,2009-12-07T15:00:00Z,29.4412,-92.0613,10.0,1.995,87.0,,'11111222,11111222,99999999' 
WAVCIS,ioos:station:WAVCIS:CSI03:3,2009-12-07T16:00:00Z,29.4412,-92.0613,10.0,3.792,121.0,,'11111222,11111222,99999999' 
WAVCIS,ioos:station:WAVCIS:CSI03:3,2009-12-07T17:00:00Z,29.4412,-92.0613,10.0,5.996,127.0,,'11111222,11111222,99999999' 
WAVCIS,ioos:station:WAVCIS:CSI03:3,2009-12-07T18:00:00Z,29.4412,-92.0613,10.0,7.09,109.0,,'11111222,11111222,99999999' 
WAVCIS,ioos:station:WAVCIS:CSI03:3,2009-12-07T19:00:00Z,29.4412,-92.0613,10.0,6.216,121.0,,'11111222,11111222,99999999' 
WAVCIS,ioos:station:WAVCIS:CSI03:3,2009-12-07T20:00:00Z,29.4412,-92.0613,10.0,5.147,112.0,,'11111222,11111222,99999999' 
WAVCIS,ioos:station:WAVCIS:CSI03:3,2009-12-07T21:00:00Z,29.4412,-92.0613,10.0,4.253,118.0,,'11111222,11111222,99999999' 
WAVCIS,ioos:station:WAVCIS:CSI03:3,2009-12-07T22:00:00Z,29.4412,-92.0613,10.0,6.374,103.0,,'11111222,11111222,99999999' 
WAVCIS,ioos:station:WAVCIS:CSI03:3,2009-12-07T23:00:00Z,29.4412,-92.0613,10.0,6.338,102.0,,'11111222,11111222,99999999' 
WAVCIS,ioos:station:WAVCIS:CSI03:3,2009-12-08T00:00:00Z,29.4412,-92.0613,10.0,5.029,84.0,,'11111222,11111222,99999999' 
WAVCIS,ioos:station:WAVCIS:CSI03:3,2009-12-08T01:00:00Z,29.4412,-92.0613,10.0,9.43,109.0,,'11111222,11111222,99999999' 
WAVCIS,ioos:station:WAVCIS:CSI03:3,2009-12-08T02:00:00Z,29.4412,-92.0613,10.0,8.61,111.0,,'11111222,11111222,99999999' 
WAVCIS,ioos:station:WAVCIS:CSI03:3,2009-12-08T03:00:00Z,29.4412,-92.0613,10.0,8.12,127.0,,'11111222,11111222,99999999' 
WAVCIS,ioos:station:WAVCIS:CSI03:3,2009-12-08T04:00:00Z,29.4412,-92.0613,10.0,9.61,162.0,,'11111222,11111222,99999999' 
WAVCIS,ioos:station:WAVCIS:CSI03:3,2009-12-08T05:00:00Z,29.4412,-92.0613,10.0,7.25,141.0,,'11111222,11111222,99999999' 
WAVCIS,ioos:station:WAVCIS:CSI03:3,2009-12-08T06:00:00Z,29.4412,-92.0613,10.0,6.348,184.0,,'11111222,11111222,99999999' 
WAVCIS,ioos:station:WAVCIS:CSI03:3,2009-12-08T07:00:00Z,29.4412,-92.0613,10.0,4.338,201.0,,'11111222,11111222,99999999' 
WAVCIS,ioos:station:WAVCIS:CSI03:3,2009-12-08T08:00:00Z,29.4412,-92.0613,10.0,3.532,191.0,,'11111222,11111222,99999999' 
WAVCIS,ioos:station:WAVCIS:CSI03:3,2009-12-08T09:00:00Z,29.4412,-92.0613,10.0,4.054,200.0,,'11111222,11111222,99999999' 
WAVCIS,ioos:station:WAVCIS:CSI03:3,2009-12-08T10:00:00Z,29.4412,-92.0613,10.0,3.198,189.0,,'11111222,11111222,99999999' 
WAVCIS,ioos:station:WAVCIS:CSI03:3,2009-12-08T11:00:00Z,29.4412,-92.0613,10.0,3.573,189.0,,'11111222,11111222,99999999' 
WAVCIS,ioos:station:WAVCIS:CSI03:3,2009-12-08T12:00:00Z,29.4412,-92.0613,10.0,4.785,184.0,,'11111222,11111222,99999999' 
WAVCIS,ioos:station:WAVCIS:CSI03:3,2009-12-08T13:00:00Z,29.4412,-92.0613,10.0,6.403,179.0,,'11111222,11111222,99999999' 
WAVCIS,ioos:station:WAVCIS:CSI03:3,2009-12-08T14:00:00Z,29.4412,-92.0613,10.0,6.076,173.0,,'11111222,11111222,99999999' 
WAVCIS,ioos:station:WAVCIS:CSI03:3,2009-12-08T15:00:00Z,29.4412,-92.0613,10.0,7.97,173.0,,'11111222,11111222,99999999' 
WAVCIS,ioos:station:WAVCIS:CSI03:3,2009-12-08T16:00:00Z,29.4412,-92.0613,10.0,7.28,171.0,,'11111222,11111222,99999999' 
WAVCIS,ioos:station:WAVCIS:CSI03:3,2009-12-08T17:00:00Z,29.4412,-92.0613,10.0,8.27,170.0,,'11111222,11111222,99999999' 
WAVCIS,ioos:station:WAVCIS:CSI03:3,2009-12-08T18:00:00Z,29.4412,-92.0613,10.0,8.92,175.0,,'11111222,11111222,99999999' 
WAVCIS,ioos:station:WAVCIS:CSI03:3,2009-12-08T19:00:00Z,29.4412,-92.0613,10.0,8.32,177.0,,'11111222,11111222,99999999' 
WAVCIS,ioos:station:WAVCIS:CSI03:3,2009-12-08T20:00:00Z,29.4412,-92.0613,10.0,5.227,184.0,,'11111222,11111222,99999999' 
WAVCIS,ioos:station:WAVCIS:CSI03:3,2009-12-08T21:00:00Z,29.4412,-92.0613,10.0,5.593,182.0,,'11111222,11111222,99999999' 
WAVCIS,ioos:station:WAVCIS:CSI03:3,2009-12-08T22:00:00Z,29.4412,-92.0613,10.0,4.855,185.0,,'11111222,11111222,99999999' 
WAVCIS,ioos:station:WAVCIS:CSI03:3,2009-12-08T23:00:00Z,29.4412,-92.0613,10.0,4.544,187.0,,'11111222,11111222,99999999' 
WAVCIS,ioos:station:WAVCIS:CSI03:3,2009-12-09T00:00:00Z,29.4412,-92.0613,10.0,4.566,185.0,,'11111222,11111222,99999999' 
WAVCIS,ioos:station:WAVCIS:CSI03:3,2009-12-09T01:00:00Z,29.4412,-92.0613,10.0,4.684,196.0,,'11111222,11111222,99999999' 
WAVCIS,ioos:station:WAVCIS:CSI03:3,2009-12-09T02:00:00Z,29.4412,-92.0613,10.0,3.984,235.0,,'11111222,11111222,99999999' 
WAVCIS,ioos:station:WAVCIS:CSI03:3,2009-12-09T03:00:00Z,29.4412,-92.0613,10.0,2.151,193.0,,'11111222,11111222,99999999' 
WAVCIS,ioos:station:WAVCIS:CSI03:3,2009-12-09T04:00:00Z,29.4412,-92.0613,10.0,4.999,265.0,,'11111222,11111222,99999999' 
WAVCIS,ioos:station:WAVCIS:CSI03:3,2009-12-09T05:00:00Z,29.4412,-92.0613,10.0,4.689,228.0,,'11111222,11111222,99999999' 
WAVCIS,ioos:station:WAVCIS:CSI03:3,2009-12-09T06:00:00Z,29.4412,-92.0613,10.0,4.783,226.0,,'11111222,11111222,99999999' 